Regional Weather Roundup
Issued by NWS

Home | Current Version | Previous Version | Text Only | Print | Product List | Glossary Off
Versions: 1 2 3 4 5 6 7 8 9 10 11 12 13 14 15 16 17 18 19 20 21 22 23 24 25 26 27 28 29 30 31 32 33 34 35 36 37 38 39 40 41 42 43 44 45 46 47 48 49 50

000
ASUS43 KFSD 280810
RWRSD

WEATHER ROUNDUP FOR SOUTH DAKOTA
NATIONAL WEATHER SERVICE SIOUX FALLS SD
200 AM CST TUE FEB 28 2017

NOTE: "FAIR" INDICATES FEW OR NO CLOUDS BELOW 12,000 FEET WITH NO
SIGNIFICANT WEATHER AND/OR OBSTRUCTIONS TO VISIBILITY.


SDZ001>005-009-010-012>017-280900-
NORTHWEST AND NORTH CENTRAL SOUTH DAKOTA

CITY           SKY/WX    TMP DP  RH WIND       PRES   REMARKS
BUFFALO          N/A     19  17  92 E13       29.62F WCI   6
FAITH            N/A     21  21 100 NE17      29.71F WCI   7
MOBRIDGE       CLOUDY    27  22  81 NE10      29.78R WCI  17
$$

SDZ012>016-024>037-041>051-057-063-072>074-280900-
SOUTHWEST AND SOUTH CENTRAL SOUTH DAKOTA

CITY           SKY/WX    TMP DP  RH WIND       PRES   REMARKS
RAPID CTY ARPT PTCLDY    23  20  88 N8        29.67S WCI  14
PIERRE         LGT SNOW  32  31  96 N7        29.72F FOG     WCI  26
CUSTER         CLOUDY    17  12  80 CALM      29.59F
ELLSWORTH AFB  PTCLDY    23  23  99 NE7       29.67S WCI  15
PHILIP         CLOUDY    28  26  92 N8        29.74S WCI  20
PINE RIDGE     FOG       32  32 100 CALM      29.69S VSB 3/4
SPEARFISH      MOCLDY    21  21 100 E8        29.64F WCI  12
WINNER         FAIR      31  26  82 N7        29.69R WCI  24
$$

SDZ004>011-016>023-039-040-280900-
NORTHEAST SOUTH DAKOTA

CITY           SKY/WX    TMP DP  RH WIND       PRES   REMARKS
ABERDEEN       LGT SNOW  25  20  81 NE15      29.80F WCI  13
WATERTOWN      CLOUDY    29  26  89 NE10      29.72F WCI  20
BROOKINGS      MOCLDY    36  29  75 N5        29.71F
SISSETON         N/A     26  25  96 N14       29.81R WCI  14
$$

SDZ017-020-022-023-036>040-048>070-280900-
SOUTHEAST SOUTH DAKOTA

CITY           SKY/WX    TMP DP  RH WIND       PRES   REMARKS
SIOUX FALLS    PTCLDY    34  31  88 NE6       29.67F WCI  29
HURON          CLOUDY    31  29  92 NE7       29.71F WCI  24
CHAMBERLAIN    CLOUDY    35  30  80 N12       29.69F WCI  27
MITCHELL       LGT RAIN  34  30  85 N12       29.69F WCI  25
YANKTON        CLOUDY    34  27  75 NE5       29.64F WCI  30
$$

ABBREVIATIONS USED IN REMARKS
   TC - TEMPERATURE IN CELSIUS
  WCI - WIND CHILL INDEX
   HX - HEAT INDEX
  VSB - VISIBILITY





USA.gov is the U.S. government's official web portal to all federal, state and local government web resources and services.